Flag Weather past 2 weeks in Barnaul, Russia

Now
-13 °F

Clear.


Feels Like: -32 °F
Forecast: -17 / 3 °F
Wind: 10 mph from Northwest

Location: Barnaul Airport

Current Time: Nov 24, 2014 at 6:53:48 PM

Latest Report: Nov 24, 2014 at 6:30 PM


Visibility: 10 mi

Pressure: 30.07 "Hg

Humidity: 69%

Dew point: -20 °F

Location of BarnaulLocation

Historic Weather in Barnaul — Graph

°F

Barnaul temperature yesterday

Maximum temperature yesterday: 28 °F (at 9:30 PM)
Minimum temperature yesterday: 23 °F (at 2:00 AM)
Average temperature yesterday: 25 °F

Past Weeks' High & Low Weather Summary

 TemperatureHumidityPressure
High32 °F (Nov 14, 12:00 PM)100% (Nov 10, 4:30 AM)30.86 "Hg (Nov 10, 4:30 AM)
Low-11 °F (Nov 24, 5:30 PM)64% (Nov 24, 3:30 PM)29.56 "Hg (Nov 24, 2:30 AM)
Average19 °F88%30.21 "Hg
* Reported Nov 9 5:00 PM — Nov 24 5:30 PM, Barnaul, Weather by CustomWeather, © 2014

Note: Actual official high and low records may vary slightly from our data, if they occured in-between our weather recording intervals... More about our weather records

Advertising

Barnaul weather history for previous 24 hours

 ConditionsComfort  
Time TempWeatherWind HumidityBarometerVisibility
5:30 PM
Nov 24
-11 °FClear.10 mph70%30.04 "Hg10 mi
5:00 PM-9 °FSunny.6 mph64%30.04 "Hg10 mi
4:30 PM-8 °FScattered clouds.8 mph64%30.01 "Hg6 mi
4:00 PM-8 °FSunny.10 mph70%29.98 "Hg10 mi
3:30 PM-6 °FSunny.13 mph64%29.98 "Hg10 mi
3:00 PM-4 °FScattered clouds.10 mph65%29.98 "Hg6 mi
2:30 PM-4 °FSunny.10 mph65%29.95 "Hg10 mi
2:00 PM-4 °FSunny.13 mph71%29.92 "Hg10 mi
1:30 PM-4 °FSunny.15 mph71%29.89 "Hg10 mi
1:00 PM-4 °FSunny.15 mph71%29.89 "Hg10 mi
12:30 PM-4 °FSunny.15 mph77%29.86 "Hg10 mi
12:00 PM-4 °FPassing clouds.13 mph77%29.86 "HgN/A
11:30 AM-4 °FPartly sunny.15 mph77%29.83 "Hg6 mi
11:00 AM-4 °FBroken clouds.17 mph77%29.80 "Hg6 mi
10:30 AM-2 °FLight snow. Partly sunny.20 mph77%29.80 "Hg5 mi
10:00 AM0 °FLight snow. Partly sunny.17 mph71%29.80 "Hg6 mi
9:30 AM0 °FLight snow. Partly sunny.20 mph78%29.77 "HgN/A
9:00 AM1 °FLight snow. Passing clouds.20 mph85%29.74 "HgN/A
8:30 AM5 °FSnow. Low clouds.22 mph78%29.71 "Hg1 mi
8:00 AM7 °FLight snow. Low clouds.17 mph85%29.71 "Hg6 mi
7:30 AM9 °FLight snow. Low clouds.20 mph85%29.68 "Hg6 mi
7:00 AM10 °FLight snow. Low clouds.22 mph85%29.65 "Hg4 mi
6:30 AM12 °FLight snow. Mostly cloudy.22 mph85%29.65 "Hg3 mi
6:00 AM21 °FHeavy snow. Low clouds.31 mph86%29.59 "Hg1 mi
5:30 AM23 °FLight snow. Partly cloudy.22 mph86%29.59 "Hg4 mi
5:00 AM23 °FLight snow. Passing clouds.22 mph93%29.59 "Hg3 mi
4:30 AM23 °FSnow. Low clouds.24 mph93%29.59 "Hg1 mi
4:00 AM25 °FHeavy snow. Mostly cloudy.26 mph93%29.56 "Hg1 mi
3:30 AM27 °FLight snow. Passing clouds.22 mph86%29.56 "Hg6 mi
3:00 AM27 °FLight snow. Passing clouds.20 mph86%29.56 "Hg3 mi
2:30 AM27 °FLight snow. Partly cloudy.22 mph86%29.56 "Hg6 mi
2:00 AM27 °FLight snow. Passing clouds.17 mph86%29.59 "Hg6 mi
1:30 AM27 °FLight snow. Passing clouds.17 mph86%29.59 "Hg6 mi
1:00 AM27 °FLight snow. Passing clouds.20 mph86%29.59 "HgN/A
12:30 AM27 °FLight snow. Passing clouds.17 mph86%29.59 "Hg6 mi
12:00 AM27 °FLight snow. Passing clouds.17 mph86%29.59 "Hg6 mi
11:30 PM
Nov 23
27 °FLight snow. Passing clouds.17 mph86%29.59 "Hg4 mi
11:00 PM27 °FLight snow. Passing clouds.22 mph86%29.59 "HgN/A
10:30 PM27 °FLight snow. Passing clouds.20 mph86%29.59 "Hg6 mi
10:00 PM27 °FPassing clouds.17 mph86%29.62 "HgN/A
9:30 PM28 °FPassing clouds.20 mph80%29.62 "HgN/A
9:00 PM27 °FPassing clouds.17 mph86%29.65 "HgN/A
8:30 PM27 °FPassing clouds.20 mph80%29.65 "HgN/A
8:00 PM27 °FPassing clouds.20 mph80%29.68 "HgN/A
7:30 PM27 °FPassing clouds.22 mph80%29.68 "HgN/A
7:00 PM27 °FPassing clouds.22 mph74%29.68 "HgN/A
6:30 PM27 °FPassing clouds.20 mph74%29.71 "HgN/A
6:00 PM27 °FPassing clouds.22 mph74%29.71 "HgN/A
Weather by CustomWeather, © 2014

See weather overviewHow to use our weather pages